Regional Weather Roundup
Issued by NWS

Home | Current Version | Previous Version | Graphics & Text | Print | Product List | Glossary On
Versions: 1 2 3 4 5 6 7 8 9 10 11 12 13 14 15 16 17 18 19 20 21 22 23 24 25 26 27 28 29 30 31 32 33 34 35 36 37 38 39 40 41 42 43 44 45 46 47 48 49 50
000
ASUS45 KCYS 010510
RWRWY

WYOMING REGIONAL WEATHER ROUNDUP
NATIONAL WEATHER SERVICE CHEYENNE WY
1100 PM MDT SUN AUG 31 2014

NOTE:  "FAIR" INDICATES FEW OR NO CLOUDS BELOW 12,000 FEET
WITH NO SIGNIFICANT WEATHER AND/OR OBSTRUCTIONS TO VISIBILITY.

WYZ001-010600-
YELLOWSTONE NATIONAL PARK

CITY           SKY/WX    TMP DP  RH WIND       PRES   REMARKS
LK YELLOWSTONE   N/A     39  36  89 VRB5      30.17S
W YELLOWSTONE  NOT AVBL

$$
WYZ002>013-054>058-071-098>099-010600-
NORTHERN WYOMING

CITY           SKY/WX    TMP DP  RH WIND       PRES   REMARKS
JACKSON        PTCLDY    43  41  93 N7        30.11S
CODY           PTCLDY    52  48  87 CALM      30.00S
GREYBULL       MOCLDY    55  49  80 W7        29.96R
WORLAND        MOCLDY    52  46  80 SW5       29.97R
SHERIDAN       PTCLDY    54  45  71 W9        29.96S
BUFFALO        MOCLDY    54  42  64 N6        29.99S
GILLETTE       MOCLDY    55  46  71 W12       29.95S
HULETT         FAIR      46  45  93 MISG      29.93
NEWCASTLE      FAIR      50  48  93 N3        29.95

$$
WYZ014>020-022>026-101>103-010600-
CENTRAL WYOMING

CITY           SKY/WX    TMP DP  RH WIND       PRES   REMARKS
BIG PINEY      CLEAR     46  35  65 CALM      30.15R
PINEDALE       CLEAR     37  36  93 NW3       30.15S
DUBOIS         FAIR      43  34  70 NW8       30.12R
LANDER         PTCLDY    55  40  56 SW8       30.03R
RIVERTON       PTCLDY    54  41  61 N8        30.04R
CASPER         PTCLDY    45  43  93 SW3       30.02R
DOUGLAS        CLEAR     50  46  86 CALM      30.01R

$$
WYZ021-027>030-104>119-010600-
SOUTHERN WYOMING

CITY           SKY/WX    TMP DP  RH WIND       PRES   REMARKS
EVANSTON       PTCLDY    53  26  35 S3        30.15F
KEMMERER       CLEAR     50  32  50 CALM      30.16S
FORT BRIDGER   FAIR      49  31  49 SW8       30.18S
ROCK SPRINGS   CLEAR     53  32  44 NW20G28   30.13R
DIXON          CLOUDY    49  44  81 E3        30.14R
RAWLINS        CLEAR     47  37  68 SW5       30.09S
SARATOGA       FAIR      48  37  66 SW9       30.12S
LARAMIE        CLEAR     53  32  44 W10       30.10R
CHEYENNE       CLEAR     51  42  71 S3        30.06R
TORRINGTON     CLEAR     51  48  89 W7        29.96R
PINE BLUFFS    FAIR      48  45  87 W6        30.01S

$$


USA.gov is the U.S. government's official web portal to all federal, state and local government web resources and services.